Location: Andrest
(43.3200°N, 0.0641°E)
Time: 04:50:36
(UTC+00:00)

Cosmos 1461 - Pass Details

Date: 01 December 2020
Orbit: 501 x 663 km, 65.0° (Epoch: 27 January)

Event Time Altitude Azimuth Distance (km) Brightness Sun altitude
Rises 17:55:20 0° 179° (S) 2,862 6.7 -16.0°
Reaches altitude 10° 17:57:52 10° 166° (SSE) 1,989 5.7 -16.4°
Enters shadow 18:01:29 25° 113° (ESE) 1,303 4.3 -17.0°
